Location: Unspecified
(49.2170°N, 0.0000°E)
Time: 13:19:30
(UTC+00:00)

Transit 2A - Visible Passes

Search period start: 25 January 2021 00:00
Search period end: 04 February 2021 00:00
Orbit: 598 x 960 km, 66.7° (Epoch: 24 January)

Date Brightness Start Highest point End Pass type
(mag) Time Alt. Az. Time Alt. Az. Time Alt. Az.
25 Jan 8.1 03:45:08 22° NE 03:45:08 22° NE 03:46:54 10° NE visible
25 Jan 6.9 05:25:38 31° NNW 05:25:38 31° NNW 05:29:46 10° NNE visible
26 Jan 8.8 03:12:07 13° NE 03:12:07 13° NE 03:12:37 10° NE visible
26 Jan 7.2 04:52:37 31° N 04:52:37 31° N 04:55:43 10° NNE visible
26 Jan 7.8 06:33:07 11° NW 06:35:23 14° NNW 06:38:03 10° N visible
27 Jan 7.7 04:19:32 24° NNE 04:19:32 24° NNE 04:21:37 10° NNE visible
27 Jan 7.6 06:00:01 16° NW 06:00:51 17° NNW 06:04:03 10° NNE visible
28 Jan 8.3 03:46:24 17° NNE 03:46:24 17° NNE 03:47:31 10° NNE visible
28 Jan 7.6 05:26:54 19° NNW 05:26:54 19° NNW 05:30:02 10° NNE visible
29 Jan 8.9 03:13:14 11° NE 03:13:14 11° NE 03:13:21 10° NE visible
29 Jan 7.7 04:53:43 20° N 04:53:43 20° N 04:56:00 10° NNE visible
29 Jan 8.0 06:35:42 10° NNW 06:36:56 11° N 06:38:09 10° N visible
30 Jan 8.0 04:20:31 17° N 04:20:31 17° N 04:21:58 10° NNE visible
30 Jan 8.0 06:00:59 11° NNW 06:02:19 12° NNW 06:04:11 10° N visible
31 Jan 8.5 03:47:16 13° NNE 03:47:16 13° NNE 03:47:55 10° NNE visible
31 Jan 7.9 05:27:44 13° NNW 05:27:44 13° NNW 05:30:11 10° N visible
01 Feb 8.0 04:54:29 14° N 04:54:29 14° N 04:56:12 10° NNE visible
02 Feb 8.2 04:21:12 14° N 04:21:12 14° N 04:22:12 10° NNE visible
03 Feb 8.6 03:47:53 11° NNE 03:47:53 11° NNE 03:48:11 10° NNE visible
03 Feb 8.2 05:28:28 10° NNW 05:29:17 10° N 05:30:06 10° N visible
